Notices

What's New in latest Release from April 7th, 2021:

- Updated Glossary, including Speed of Maximum Gust, and Total Hourly Precipitation

- Updated national and regional climate services offices contacts and prices information

- Addition of station inventory lists for 1981-2010, 1971-2000, and 1961-1990 Normals.

If you haven't already, please take our survey and provide feedback about our website: https://eccc.sondage-survey.ca/f/LanguageSelection.aspx?s=442ca660-fcf1-47c0-95a9-59707d6fd709

Hourly Data Report for January 06, 2004

SHERBROOKE A
QUEBEC

45°26'00.000" N
71°41'00.000" W
241.40 m
7028124
71610
YSC

Download Data

Hourly Data (January 2004)
Hourly Data Report for January 6, 2004
TIME
LST
Temp Definition
°C
Dew Point Definition
°C
Rel Hum Definition
%
Precip. Amount Definition
mm

Wind Dir Definition
10's deg

Wind Spd Definition
km/h
Visibility Definition
km
Stn Press Definition
kPa
Hmdx Definition


Wind Chill Definition


Weather Definition


00:00 -6.1 -8.1 86   10 7 4.0 97.80   -9 Snow
01:00 -6.0 -8.5 82   24 19 2.6 97.90   -13 Snow
02:00 -8.8 -11.5 81   28 7 1.4 97.99   -13 Snow
03:00 -9.3 -12.7 76   25 15 6.4 98.02   -16 Snow
04:00 -9.9 -13.3 76   25 13 8.0 98.08   -16 Snow
05:00 -10.2 -13.1 79   24 17 6.4 98.08   -17 Snow
06:00 -10.0 -13.2 77   26 17 8.0 98.09   -17 Snow
07:00 -10.3 -13.2 79   23 9 4.8 98.11   -15 Snow
08:00 -10.3 -13.7 76   25 17 4.8 98.14   -18 Snow Showers
09:00 -9.9 -13.4 76   27 19 4.8 98.14   -18 Snow Showers
10:00 -9.5 -13.6 72   27 20 9.7 98.13   -17 Snow Showers
11:00 -9.0 -13.3 71   23 13 16.1 98.07   -15 Snow Showers
12:00 -8.8 -13.6 68   24 22 19.3 97.98   -17 Snow Showers
13:00 -8.6 -13.5 68   24 22 16.1 97.94   -16 Snow Showers
14:00 -8.5 -13.6 67   27 19 19.3 97.99   -16 Snow Showers
15:00 -8.5 -13.9 65   25 22 24.1 98.03   -16 Mostly Cloudy
16:00 -9.2 -14.3 66   26 19 24.1 98.06   -17 Mostly Cloudy
17:00 -10.5 -15.3 68   27 15 24.1 98.13   -17 Mainly Clear
18:00 -11.7 -15.6 73   26 19 15.0 98.20   -20  
19:00 -11.8 -15.8 72   29 13 15.0 98.32   -18  
20:00 -12.5 -15.8 76   28 17 9.7 98.35   -20  
21:00 -13.2 -15.9 80   28 15 11.3 98.41   -21  
22:00 -13.9 -16.7 79   23 11 15.0 98.45   -20  
23:00 -14.3 -17.0 80   26 9 15.0 98.42   -20  

Notes on Data Quality.

Legend

  • E = Estimated
  • M = Missing
  • NA = Not Available*
  • [empty] = Indicates an unobserved value
Date modified: